Location: Braden Valley Church
(38.0012°N, 88.6106°W)
Time: 16:13:31
(UTC+00:00)

Daily predictions for brighter satellites

Satellite Brightness Start Highest point End
(mag) Time Altitude Azimuth Time Altitude Azimuth Time Altitude Azimuth
USA 215 3.7 12:00:45 10° ESE 12:07:07 58° NE 12:13:30 10° NW
SJ 16-02 2.5 12:04:11 10° WSW 12:07:36 22° WNW 12:11:04 10° NNW
CZ-4B R/B 2.6 12:05:23 10° N 12:08:53 56° WNW 12:12:28 10° SSW
OAO 2 Rocket 4.1 12:06:15 10° WSW 12:11:18 53° S 12:16:15 10° E
Cosmos 1607 4.2 12:06:45 10° NNW 12:12:59 72° ENE 12:19:05 10° SE
Cosmos 1666 Rocket 4.2 12:10:00 10° S 12:14:24 62° E 12:18:50 10° NNE
DELTA 2 R/B (1) 3.6 12:12:08 11° WNW 12:17:33 89° SSW 12:23:07 10° ESE
Cosmos 2228 Rocket 3.2 12:16:38 10° NNW 12:21:05 59° W 12:25:32 10° S
Meteor 1-27 Rocket 4.4 12:16:11 10° NNW 12:21:18 35° W 12:26:30 10° SSW
Lacrosse 4 Rocket 3.9 12:24:17 10° N 12:27:32 19° NE 12:30:47 10° E
Sich 1 3.4 12:26:33 10° SSW 12:30:36 42° W 12:34:41 10° N
FengYun 1-2 T 4.3 22:54:46 10° SSE 23:00:15 62° ENE 23:05:43 10° N
COSMOS 2455 3.7 22:59:41 10° SW 23:05:29 49° WNW 23:11:20 10° NNE
Cosmos 1833 Rocket 4.4 23:01:32 10° WSW 23:06:21 29° WNW 23:11:13 10° N
Cosmos 921 Rocket 3.7 23:04:07 10° SSE 23:07:54 34° E 23:11:44 10° NE
CZ-4B DEB 4.4 23:07:19 10° SE 23:12:34 47° ENE 23:17:48 10° N
Cosmos 2278 3.8 23:07:12 10° NNW 23:12:47 53° ENE 23:18:18 10° SE
Cosmos 44 Rocket 4.0 23:09:09 10° N 23:13:29 30° NE 23:17:40 10° ESE
CZ-2D R/B 4.0 23:11:08 10° SE 23:14:29 30° ENE 23:17:50 10° N
SL-24 R/B - RUBIN 2 3.6 23:13:13 10° NNW 23:17:38 86° WSW 23:21:56 10° SSE
CZ-2C R/B 3.3 23:14:29 10° NE 23:19:03 31° E 23:23:37 10° SSE
Cosmos 1939 Rocket 2.9 23:15:21 10° SSE 23:19:27 85° ENE 23:23:32 10° N
ISS -3.8 23:16:17 10° NW 23:19:41 80° NE 23:23:04 10° SE
Cosmos 1814 Rocket 4.3 23:15:20 10° SSW 23:20:32 70° WNW 23:25:43 10° NNE
Cosmos 1782 4.0 23:19:25 10° SSW 23:23:14 45° W 23:27:05 10° N
Cosmos 1666 2.7 23:21:35 10° N 23:25:15 55° E 23:28:53 10° SSE
Cosmos 1151 Rocket 3.0 23:21:49 10° S 23:26:08 88° E 23:30:31 10° N
Cosmos 1570 Rocket 4.3 23:23:00 10° SSW 23:28:13 70° WNW 23:33:27 10° NNE
Meteor 1-14 Rocket 4.3 23:22:25 10° N 23:28:18 70° E 23:34:15 10° SSE
CZ-2C R/B 1.9 23:28:09 10° WSW 23:32:23 54° S 23:35:52 14° E
Cosmos 1633 Rocket 3.0 23:28:20 10° N 23:32:42 62° E 23:37:03 10° SSE
COSMO-SKYMED 1 3.1 23:29:08 10° NNE 23:33:12 38° E 23:37:13 10° SSE
Landsat 5 4.5 23:31:15 14° NE 23:33:43 23° E 23:36:52 10° SSE
Cosmos 1655 Rocket 4.4 23:28:39 10° N 23:34:35 39° ENE 23:40:26 10° SE
Aureole 3 Rocket 4.4 23:31:38 10° SE 23:35:13 25° E 23:39:51 10° NNE
APEX 2.9 23:32:06 10° SSW 23:36:08 75° ESE 23:38:59 13° NNE
Tiangong 2.2 23:34:15 10° SW 23:37:08 33° SSE 23:38:49 19° E
CZ-4B R/B 3.5 23:33:13 10° SE 23:38:14 41° ENE 23:43:13 10° N
Meteor 2-16 Rocket 4.4 23:32:37 10° N 23:38:47 79° E 23:44:55 10° S
Cosmos 2298 Rocket 4.4 23:34:55 10° N 23:39:57 41° ENE 23:44:58 10° SE
X-37B 0.9 23:38:27 10° W 23:41:17 49° NNW 23:42:42 24° NE
MOS 1-B 4.3 23:42:37 10° SSE 23:48:20 71° ENE 23:54:06 10° N
Meteor 1-27 Rocket 4.1 23:43:33 10° SSE 23:48:38 40° E 23:53:44 10° NNE
Lacrosse 5 rocket 1.6 23:45:19 10° NNW 23:49:08 44° NE 23:51:43 20° ESE
Meteor 2-6 Rocket 4.3 23:44:57 10° S 23:50:42 81° W 23:56:19 10° N
Meteor 2-15 Rocket 4.5 23:46:16 10° S 23:52:15 59° E 23:58:14 10° NNE
PAYLOAD B 4.2 23:48:43 10° SSE 23:54:19 86° ENE 23:59:57 10° NNW
Cosmos 1544 3.3 23:50:52 10° N 23:54:20 43° E 23:57:48 10° SSE
SL-08 RB Rocket 4.4 23:50:52 10° SE 23:54:55 31° ENE 23:58:56 10° N
